User: anonymous
Location: Ostrava
(49.8330°N, 18.2830°E)
Time: 05:50:26
(UTC+02:00)
Language:

Cosmos 2221 - Orbit

View from above orbital plane
View from above orbital plane
View from above satellite
View from above satellite

Ground track
Ground track

The orbit data is extracted from the following two-line orbital elements,

1 22236U 92080A   14106.10396462  .00001466  00000-0  16598-3 0  1112
2 22236 082.5096 071.7198 0015985 234.6273 125.3450 14.85703618155223
Epoch (UTC): 16 April 2014 02:29:42
Eccentricity: 0.0015985
inclination: 82.5096°
perigee height: 600 km
apogee height: 622 km
right ascension of ascending node: 71.7198°
argument of perigee: 234.6273°
revolutions per day: 14.85703618
mean anomaly at epoch: 125.3450°
orbit number at epoch: 15522

The dashed part of the orbit path shows where the satellite is in the earth's shadow,  

DLR